Regional Weather Roundup
Issued by NWS

Home | Current Version | Previous Version | Graphics & Text | Print | Product List | Glossary On
Versions: 1 2 3 4 5 6 7 8 9 10 11 12 13 14 15 16 17 18 19 20 21 22 23 24 25 26 27 28 29 30 31 32 33 34 35 36 37 38 39 40 41 42 43 44 45 46 47 48 49 50
000
ASUS43 KDTX 011001
RWRMI
MICHIGAN HOURLY REGIONAL WEATHER ROUNDUP
NATIONAL WEATHER SERVICE DETROIT/PONTIAC MI
500 AM EST SUN FEB 01 2015

NOTE: "FAIR" INDICATES FEW OR NO CLOUDS BELOW 12,000 FEET WITH NO
SIGNIFICANT WEATHER AND/OR OBSTRUCTION TO VISIBILITY.

MIZ047>049-052>055-059>063-066>070-074>076-081>083-011100-
SOUTHEAST LOWER MICHIGAN

CITY           SKY/WX    TMP DP  RH WIND       PRES   REMARKS
ADRIAN         LGT SNOW  29  27  92 E7        30.14F FOG     WCI  22
ALMA           LGT SNOW  19  16  88 NE12G18   30.21R WCI   6
ANN ARBOR      LGT SNOW  28  25  88 NE8       30.14F FOG     WCI  20
BAD AXE        CLOUDY    20  17  86 NE14      30.21F WCI   7
CARO           CLOUDY    19  13  78 N7        30.22S WCI  10
DETROIT CITY   LGT SNOW  28  23  81 NE6       30.18S WCI  22
DETROIT        LGT SNOW  28  25  88 NE10      30.17S FOG     WCI  19
FLINT          LGT SNOW  22  17  81 NE12      30.19R WCI  10
GROSSE ILE     LGT SNOW  28  27  93 NE12      30.15S WCI  18
HILLSDALE      LGT SNOW  29  29 100 E6        30.10S WCI  23
HOWELL         LGT SNOW  24  22  93 NE5       30.14F WCI  18

CITY           SKY/WX    TMP DP  RH WIND       PRES   REMARKS
JACKSON        LGT SNOW  25  22  88 NE5       30.13F VSB 1   WCI  19
LAMBERTVILLE   LGT SNOW  32  30  93 CALM      30.15S
LANSING        LGT SNOW  24  20  84 NE10      30.17S FOG     WCI  14
LAPEER         LGT SNOW  19  16  86 NE8       30.19F WCI   9
MASON          LGT SNOW  24  21  89 NE8       30.14F WCI  15
MONROE         LGT SNOW  28  28 100 NE5       30.14F WCI  23
MT. CLEMENS    MIX PCPN  26  22  87 NE10      30.16S WCI  16
PONTIAC        LGT SNOW  24  20  84 NE7       30.15S FOG     WCI  16
PORT HOPE        N/A     21  14  74 NE18      30.22S WCI   6
PORT HURON     LGT SNOW  23  21  93 N5        30.20S WCI  17
TRI CITIES     CLOUDY    20  11  68 NE14      30.23S WCI   7
TROY           LGT SNOW  28  23  82 NE8       30.19F WCI  19
SAGINAW HB     CLOUDY    21  14  73 N12       30.23S WCI   9
$$
MIZ043>046-050>051-056>058-064>065-071>073-077>080-011100-
SOUTHWEST LOWER MICHIGAN

CITY           SKY/WX    TMP DP  RH WIND       PRES   REMARKS
BATTLE CREEK   LGT SNOW  27  23  85 E10       30.11F FOG     WCI  17
BENTON HARBOR  LGT SNOW  28  27  96 E8        30.09F VSB 3/4 WCI  20
BIG RAPIDS     LGT SNOW  16  10  79 NE7       30.18S WCI   6
COLDWATER      LGT SNOW  29  28  97 E5        30.10F WCI  24
FREMONT        LGT SNOW  19  15  84 NE10      30.17F WCI   7
HOLLAND        LGT SNOW  27  22  81 E12       30.13F WCI  17
GRAND RAPIDS   LGT SNOW  24  20  84 NE15      30.15F FOG     WCI  11
IONIA          LGT SNOW  23  20  89 NE12      30.15F WCI  12
KALAMAZOO      LGT SNOW  28  24  85 NE5       30.11F FOG     WCI  23
LUDINGTON      CLOUDY    19  10  68 E9        30.21F WCI   9
MARSHALL       LGT SNOW  25  22  91 NE7       30.11F WCI  17
MOUNT PLEASANT LGT SNOW  17  10  74 NE8       30.21S WCI   7
MUSKEGON       LGT SNOW  22  18  85 NE14      30.16F FOG     WCI   9
SOUTH HAVEN    LGT SNOW  29  26  88 E12G18    30.10F WCI  19
$$
MIZ016>042-011100-
NORTHERN LOWER MICHIGAN

CITY           SKY/WX    TMP DP  RH WIND       PRES   REMARKS
ALPENA         CLOUDY     7   2  80 N9        30.33R WCI  -7
BEAVER ISLAND  MOCLDY     4  -2  75 NE3       30.34F
BELLAIRE       MOCLDY    11   2  67 N5        30.31F WCI   3
CADILLAC       CLOUDY    12   5  74 NE10      30.18F WCI  -1
CHARLEVOIX     MOCLDY     8   2  76 NE9       30.34F WCI  -5
FRANKFORT      CLOUDY    17  10  73 E8        30.25F WCI   6
GAYLORD        CLOUDY     7   4  87 NE6       30.24S WCI  -3
GRAYLING       CLOUDY    10   4  77 N8        30.25S WCI  -3
HARBOR SPRINGS MOCLDY     6   0  76 N8        30.32S WCI  -7
HOUGHTON LAKE  CLOUDY    12   4  70 NE10      30.22S WCI  -1
MANISTEE       CLOUDY    18   7  62 NE14G20   30.23F WCI   4
OSCODA         FLURRIES  14   8  78 N15       30.28R WCI  -1
PELLSTON       MOCLDY     4  -3  73 NE15      30.34F WCI -14
TRAVERSE CITY  CLOUDY    14   6  70 NE15      30.27F WCI  -1
$$
MIZ007>008-015-011100-
EASTERN UPPER MICHIGAN

CITY           SKY/WX    TMP DP  RH WIND       PRES   REMARKS
KINROSS        MOCLDY    -8 -13  77 NE7       30.38R WCI -22
MACKINAC ISLAN MOCLDY     1  -6  71 NE13      30.36S WCI -16
NEWBERRY       PTCLDY    -5 -10  80 NE6       30.36S WCI -17
S. S. MARIE    MOCLDY    -7 -17  62 NE5       30.39R WCI -18
$$
MIZ004>006-011>014-085-011100-
CENTRAL UPPER MICHIGAN

CITY           SKY/WX    TMP DP  RH WIND       PRES   REMARKS
MANISTIQUE     CLOUDY     6   0  74 N7        30.34F WCI  -5
ESCANABA       CLOUDY    10   5  79 NE8       30.33S WCI  -1
MENOMINEE      CLOUDY    10   3  72 NE10      30.29S WCI  -3
SAWYER-GWINN   CLOUDY     9   4  80 NE7       30.29S WCI  -2
$$
MIZ001>003-009>011-084-011100-
WESTERN UPPER MICHIGAN

CITY           SKY/WX    TMP DP  RH WIND       PRES   REMARKS
IRON MOUNTAIN  CLOUDY     8   1  73 N6        30.27F WCI  -2
HOUGHTON       CLOUDY     2  -2  83 NE5       30.35F WCI  -8
COPPER HARBOR    N/A      9   1  70 SE7G16    30.40S WCI  -2
IRONWOOD       MOCLDY     3  -2  78 E6        30.30F WCI  -8
$$

ABBREVIATIONS USED IN REMARKS
   TC - TEMPERATURE IN CELSIUS
  WCI - WIND CHILL INDEX
   HX - HEAT INDEX
  VSB - VISIBILITY



USA.gov is the U.S. government's official web portal to all federal, state and local government web resources and services.